When you browse on this site, cookies collect data to enhance your experience and personalize the content and advertising you see.
Visit our Privacy Policy to learn more. By continuing to use the site, you agree to this use of cookies and data.
  • In Spain
  • List of Countries
  • For 7 days
  • Water Temperature
  • Satellite Maps
  • Weather Map
  • Weather Widgets
  • user-avatar
    Login

    Hourly Weather Nazaret

    Today, 21 July, Sunday

    Time Temperature Precipitation Wind Pressure Humidity
    00:00 +21°C° 0 mm 2 mps 726 mmHg 89%
    01:00 +21°C° 0 mm 2 mps 726 mmHg 89%
    02:00 +22°C° 0 mm 1 mps 726 mmHg 89%
    03:00 +22°C° 0 mm 1 mps 725 mmHg 90%
    04:00 +21°C° 0 mm 1 mps 725 mmHg 90%
    05:00 +21°C° 0 mm 1 mps 725 mmHg 90%
    06:00 +23°C° 0 mm 2 mps 726 mmHg 79%
    07:00 +26°C° 0 mm 2 mps 726 mmHg 69%
    08:00 +28°C° 0 mm 3 mps 726 mmHg 59%
    09:00 +29°C° 0 mm 3 mps 726 mmHg 53%
    10:00 +32°C° 0 mm 4 mps 726 mmHg 48%
    11:00 +34°C° 0 mm 5 mps 726 mmHg 42%
    12:00 +33°C° 0 mm 5 mps 726 mmHg 43%
    13:00 +33°C° 0 mm 6 mps 726 mmHg 44%
    14:00 +33°C° 0 mm 7 mps 725 mmHg 45%
    15:00 +32°C° 0 mm 7 mps 725 mmHg 51%
    16:00 +30°C° 0 mm 6 mps 725 mmHg 56%
    17:00 +29°C° 0 mm 6 mps 725 mmHg 61%
    18:00 +27°C° 0 mm 5 mps 725 mmHg 71%
    19:00 +25°C° 0 mm 4 mps 725 mmHg 80%
    20:00 +23°C° 0 mm 2 mps 725 mmHg 90%
    21:00 +23°C° 0 mm 2 mps 725 mmHg 90%
    22:00 +23°C° 0 mm 2 mps 725 mmHg 90%
    23:00 +23°C° 0 mm 1 mps 724 mmHg 91%

    Tomorrow, 22 July, Monday

    Time Temperature Precipitation Wind Pressure Humidity
    00:00 +22°C° 0 mm 1 mps 724 mmHg 91%
    01:00 +22°C° 0 mm 1 mps 724 mmHg 91%
    02:00 +22°C° 0 mm 1 mps 724 mmHg 91%
    03:00 +22°C° 0 mm 1 mps 724 mmHg 91%
    04:00 +22°C° 0 mm 1 mps 724 mmHg 91%
    05:00 +21°C° 0 mm 1 mps 724 mmHg 91%
    06:00 +24°C° 0 mm 1 mps 724 mmHg 81%
    07:00 +26°C° 0 mm 2 mps 725 mmHg 71%
    08:00 +28°C° 0 mm 2 mps 725 mmHg 61%
    09:00 +30°C° 0 mm 2 mps 725 mmHg 54%
    10:00 +33°C° 0 mm 3 mps 725 mmHg 46%
    11:00 +35°C° 0 mm 3 mps 725 mmHg 39%
    12:00 +35°C° 0 mm 4 mps 725 mmHg 39%
    13:00 +35°C° 0 mm 5 mps 724 mmHg 40%
    14:00 +35°C° 0 mm 6 mps 724 mmHg 40%
    15:00 +34°C° 0 mm 6 mps 724 mmHg 43%
    16:00 +33°C° 0 mm 6 mps 723 mmHg 46%
    17:00 +32°C° 0 mm 5 mps 723 mmHg 49%
    18:00 +29°C° 0 mm 4 mps 723 mmHg 60%
    19:00 +27°C° 0 mm 4 mps 723 mmHg 70%
    20:00 +24°C° 0 mm 3 mps 723 mmHg 80%
    21:00 +24°C° 0 mm 2 mps 723 mmHg 81%
    22:00 +23°C° 0 mm 2 mps 723 mmHg 82%
    23:00 +23°C° 0 mm 2 mps 722 mmHg 82%

    Day after tomorrow, 23 July, Tuesday

    Time Temperature Precipitation Wind Pressure Humidity
    00:00 +23°C° 0 mm 2 mps 722 mmHg 83%
    01:00 +23°C° 0 mm 2 mps 722 mmHg 84%
    02:00 +21°C° 0 mm 2 mps 722 mmHg 85%
    03:00 +22°C° 0 mm 1 mps 722 mmHg 86%
    04:00 +22°C° 0 mm 1 mps 722 mmHg 87%
    05:00 +22°C° 0 mm 1 mps 722 mmHg 88%
    06:00 +24°C° 0 mm 1 mps 723 mmHg 76%
    07:00 +27°C° 0 mm 1 mps 723 mmHg 64%
    08:00 +29°C° 0 mm 1 mps 723 mmHg 51%
    09:00 +31°C° 0 mm 2 mps 723 mmHg 45%
    10:00 +35°C° 0 mm 3 mps 723 mmHg 38%
    11:00 +37°C° 0 mm 4 mps 723 mmHg 31%
    12:00 +37°C° 0 mm 5 mps 723 mmHg 31%
    13:00 +38°C° 0 mm 6 mps 723 mmHg 32%
    14:00 +38°C° 0 mm 7 mps 722 mmHg 32%
    15:00 +35°C° 0 mm 7 mps 722 mmHg 35%
    16:00 +34°C° 0 mm 7 mps 722 mmHg 39%
    17:00 +33°C° 0 mm 6 mps 722 mmHg 42%
    18:00 +30°C° 0 mm 5 mps 722 mmHg 52%
    19:00 +27°C° 0 mm 4 mps 722 mmHg 62%
    20:00 +25°C° 0 mm 3 mps 722 mmHg 72%
    21:00 +24°C° 0 mm 3 mps 722 mmHg 76%
    22:00 +24°C° 0 mm 2 mps 722 mmHg 81%
    23:00 +23°C° 0 mm 2 mps 722 mmHg 86%

    24 July, Wednesday

    Time Temperature Precipitation Wind Pressure Humidity
    00:00 +23°C° 0 mm 1 mps 722 mmHg 87%
    01:00 +22°C° 0 mm 1 mps 722 mmHg 88%
    02:00 +22°C° 0 mm 1 mps 722 mmHg 89%
    03:00 +22°C° 0 mm 1 mps 722 mmHg 90%
    04:00 +22°C° 0 mm 1 mps 722 mmHg 90%
    05:00 +21°C° 0 mm 1 mps 722 mmHg 91%
    06:00 +24°C° 0 mm 1 mps 723 mmHg 79%
    07:00 +26°C° 0 mm 2 mps 723 mmHg 68%
    08:00 +29°C° 0 mm 2 mps 723 mmHg 57%
    09:00 +31°C° 0 mm 3 mps 724 mmHg 49%
    10:00 +34°C° 0 mm 4 mps 724 mmHg 41%
    11:00 +36°C° 0 mm 5 mps 724 mmHg 33%
    12:00 +36°C° 0 mm 5 mps 724 mmHg 33%
    13:00 +35°C° 0 mm 6 mps 724 mmHg 33%
    14:00 +35°C° 0 mm 6 mps 724 mmHg 34%
    15:00 +34°C° 0 mm 6 mps 723 mmHg 39%
    16:00 +33°C° 0 mm 6 mps 723 mmHg 44%
    17:00 +32°C° 0 mm 5 mps 723 mmHg 49%
    18:00 +28°C° 0 mm 4 mps 723 mmHg 61%
    19:00 +26°C° 0 mm 3 mps 723 mmHg 73%
    20:00 +24°C° 0 mm 2 mps 723 mmHg 85%
    21:00 +23°C° 0 mm 1 mps 723 mmHg 84%
    22:00 +23°C° 0 mm 1 mps 723 mmHg 84%
    23:00 +22°C° 0 mm 1 mps 723 mmHg 84%

    25 July, Thursday

    Time Temperature Precipitation Wind Pressure Humidity
    00:00 +22°C° 0 mm 1 mps 723 mmHg 82%
    01:00 +21°C° 0 mm 1 mps 723 mmHg 81%
    02:00 +21°C° 0 mm 1 mps 722 mmHg 80%
    03:00 +21°C° 0 mm 1 mps 723 mmHg 81%
    04:00 +21°C° 0 mm 1 mps 723 mmHg 82%
    05:00 +21°C° 0 mm 1 mps 723 mmHg 84%
    06:00 +23°C° 0 mm 1 mps 723 mmHg 73%
    07:00 +26°C° 0 mm 1 mps 724 mmHg 63%
    08:00 +28°C° 0 mm 2 mps 725 mmHg 53%
    09:00 +30°C° 0 mm 2 mps 725 mmHg 45%
    10:00 +33°C° 0 mm 3 mps 725 mmHg 37%
    11:00 +35°C° 0 mm 3 mps 725 mmHg 30%
    12:00 +35°C° 0 mm 4 mps 725 mmHg 30%
    13:00 +36°C° 0 mm 5 mps 724 mmHg 30%
    14:00 +36°C° 0 mm 6 mps 724 mmHg 31%
    15:00 +34°C° 0 mm 6 mps 724 mmHg 34%
    16:00 +33°C° 0 mm 6 mps 723 mmHg 38%
    17:00 +32°C° 0 mm 5 mps 723 mmHg 42%
    18:00 +28°C° 0 mm 4 mps 723 mmHg 54%
    19:00 +26°C° 0 mm 3 mps 723 mmHg 66%
    20:00 +23°C° 0 mm 2 mps 723 mmHg 79%
    21:00 +23°C° 0 mm 2 mps 723 mmHg 79%
    22:00 +21°C° 0 mm 2 mps 723 mmHg 79%
    23:00 +21°C° 0 mm 1 mps 723 mmHg 80%

    26 July, Friday

    Time Temperature Precipitation Wind Pressure Humidity
    00:00 +21°C° 0 mm 1 mps 723 mmHg 80%
    01:00 +21°C° 0 mm 1 mps 723 mmHg 81%
    02:00 +21°C° 0 mm 1 mps 723 mmHg 81%
    03:00 +21°C° 0 mm 1 mps 723 mmHg 82%
    04:00 +20°C° 0 mm 1 mps 723 mmHg 82%
    05:00 +20°C° 0 mm 1 mps 723 mmHg 83%
    06:00 +23°C° 0 mm 1 mps 723 mmHg 72%
    07:00 +26°C° 0 mm 2 mps 724 mmHg 62%
    08:00 +28°C° 0 mm 2 mps 724 mmHg 52%
    09:00 +30°C° 0 mm 3 mps 724 mmHg 47%
    10:00 +33°C° 0 mm 3 mps 724 mmHg 42%
    11:00 +35°C° 0 mm 4 mps 724 mmHg 38%
    12:00 +35°C° 0 mm 5 mps 724 mmHg 39%
    13:00 +35°C° 0 mm 5 mps 723 mmHg 40%
    14:00 +35°C° 0 mm 6 mps 723 mmHg 41%
    15:00 +34°C° 0 mm 6 mps 723 mmHg 45%
    16:00 +33°C° 0 mm 6 mps 722 mmHg 49%
    17:00 +32°C° 0 mm 5 mps 722 mmHg 53%
    18:00 +29°C° 0 mm 5 mps 722 mmHg 64%
    19:00 +26°C° 0 mm 4 mps 722 mmHg 75%
    20:00 +24°C° 0 mm 3 mps 722 mmHg 86%
    21:00 +24°C° 0 mm 3 mps 722 mmHg 87%
    22:00 +23°C° 0 mm 2 mps 722 mmHg 89%
    23:00 +23°C° 0 mm 2 mps 722 mmHg 91%
    Show more